CW0230 Weather Reports


Display with metric or nautical units.
time (UTC)temp
F
wind
direction
speed
MPH
gust
MPH
rain 1hr
in
rain 24hr
in
rain mn
in
humidity
%
barometer
mb
20260508091505 57 159 4.0 12.0 0.00 0.01 0.01 83 1015.1
20260508091004 57 168 5.0 12.0 0.00 0.01 0.01 83 1015.2
20260508090504 57 122 4.0 7.0 0.00 0.01 0.01 83 1015.2
20260508090005 56 128 3.0 7.0 0.00 0.01 0.01 83 1015.2
20260508085505 56 159 3.0 8.0 0.00 0.01 0.01 84 1015.2
20260508085005 56 115 4.0 8.0 0.00 0.01 0.01 84 1015.2
20260508083504 56 128 5.0 9.0 0.00 0.01 0.01 85 1015.2
20260508082004 56 119 6.0 10.0 0.00 0.01 0.01 85 1015.3
20260508075505 56 98 3.0 9.0 0.00 0.01 0.01 88 1014.9
20260508074005 55 120 4.0 7.0 0.00 0.01 0.01 87 1014.9
20260508073505 55 106 3.0 7.0 0.00 0.01 0.01 88 1014.9
20260508073005 55 58 3.0 10.0 0.00 0.01 0.01 88 1014.9
20260508072004 55 116 5.0 10.0 0.00 0.01 0.01 88 1014.8
20260508071504 54 89 3.0 10.0 0.00 0.01 0.01 89 1014.8
20260508065506 53 100 3.0 6.0 0.00 0.01 0.01 91 1014.7
20260508064004 52 87 1.0 8.0 0.00 0.01 0.01 90 1014.7
20260508060505 52 94 3.0 8.0 0.00 0.01 0.01 91 1014.6
20260508055004 51 80 4.0 7.0 0.00 0.01 0.01 91 1014.5
20260508054505 51 82 2.0 5.0 0.00 0.01 0.01 92 1014.5
20260508054004 51 38 0.0 3.0 0.00 0.01 0.01 92 1014.5
20260508053505 51 50 1.0 3.0 0.00 0.01 0.01 91 1014.4
20260508052504 51 84 1.0 5.0 0.00 0.01 0.01 91 1014.4
20260508051504 51 43 0.0 3.0 0.00 0.01 0.01 91 1014.3
20260508051004 51 5 1.0 2.0 0.00 0.01 0.01 91 1014.3
20260508050504 51 5 0.0 3.0 0.00 0.01 0.01 91 1014.3
20260508045504 51 43 1.0 3.0 0.00 0.01 0.01 91 1014.4
20260508044504 51 26 2.0 3.0 0.00 0.01 0.01 91 1014.3
20260508044005 51 44 1.0 3.0 0.00 0.01 0.01 91 1014.3
20260508043504 51 62 1.0 5.0 0.00 0.01 0.01 91 1014.3
20260508042504 51 47 2.0 5.0 0.00 0.01 0.01 91 1014.3
20260508040504 51 19 1.0 3.0 0.00 0.01 0.01 91 1014.4
20260508035004 51 32 0.0 3.0 0.01 0.01 0.01 90 1014.5
20260508033005 51 355 2.0 3.0 0.01 0.01 0.01 90 1014.4
20260508032504 51 35 1.0 5.0 0.01 0.01 0.01 90 1014.5
20260508031504 51 64 1.0 5.0 0.01 0.01 0.01 90 1014.6
20260508031004 51 127 1.0 3.0 0.01 0.01 0.01 89 1014.7
20260508030504 51 50 0.0 3.0 0.01 0.01 0.01 89 1014.6
20260508025004 51 95 2.0 5.0 0.00 0.00 0.00 88 1014.7
20260508023504 51 140 2.0 6.0 0.00 0.00 0.00 87 1014.8
20260508021004 52 82 2.0 5.0 0.00 0.00 0.00 87 1014.7
20260508020504 52 113 1.0 3.0 0.00 0.00 0.00 87 1014.8
20260508020004 52 136 2.0 3.0 0.00 0.00 0.00 86 1014.8
20260508015006 52 142 2.0 6.0 0.00 0.00 0.00 85 1014.9
20260508014505 52 140 1.0 7.0 0.00 0.00 0.00 84 1014.9
20260508014004 52 148 3.0 7.0 0.00 0.00 0.00 84 1015.0
20260508013504 52 142 2.0 8.0 0.00 0.00 0.00 83 1014.9
20260508011505 53 87 1.0 5.0 0.00 0.00 0.00 82 1015.0
20260508011005 53 127 2.0 6.0 0.00 0.00 0.00 82 1015.0
20260508010504 53 133 3.0 6.0 0.00 0.00 0.00 81 1015.0
20260508004504 53 110 2.0 5.0 0.00 0.00 0.00 81 1015.0
20260508003505 53 144 2.0 6.0 0.00 0.00 0.00 81 1015.0
20260508003006 53 158 2.0 7.0 0.00 0.00 0.00 81 1015.1
20260508002504 53 118 3.0 7.0 0.00 0.00 0.00 82 1015.1
20260508000504 53 132 3.0 7.0 0.00 0.00 0.00 82 1015.2
20260508000005 53 159 3.0 6.0 0.00 0.00 0.00 82 1015.2
20260507235504 53 158 3.0 6.0 0.00 0.00 0.00 83 1015.2
20260507225005 54 114 3.0 7.0 0.00 0.00 0.00 80 1015.1
20260507224004 54 115 3.0 8.0 0.00 0.00 0.00 79 1015.3
20260507223005 54 123 3.0 8.0 0.00 0.00 0.00 78 1015.2
20260507222505 54 142 3.0 8.0 0.00 0.00 0.00 77 1015.3
20260507222004 54 128 3.0 9.0 0.00 0.00 0.00 76 1015.3
20260507221504 54 113 3.0 9.0 0.00 0.00 0.00 75 1015.3
20260507220505 54 121 2.0 6.0 0.00 0.00 0.00 73 1015.4
20260507215505 55 131 4.0 7.0 0.00 0.00 0.00 71 1015.4
20260507213005 55 139 4.0 8.0 0.00 0.00 0.00 68 1015.4
20260507212504 55 119 2.0 8.0 0.00 0.00 0.00 67 1015.5
20260507212005 55 131 2.0 7.0 0.00 0.00 0.00 65 1015.4
20260507211505 55 126 4.0 8.0 0.00 0.00 0.00 64 1015.4
20260507205005 56 104 3.0 8.0 0.00 0.00 0.00 59 1015.2
20260507202005 56 136 2.0 3.0 0.00 0.00 0.00 58 1015.0
20260507200006 57 80 2.0 5.0 0.00 0.00 0.00 56 1014.8
20260507195004 57 87 1.0 3.0 0.00 0.00 0.00 56 1014.7
20260507194005 57 128 2.0 3.0 0.00 0.00 0.00 56 1014.6
20260507193504 57 128 0.0 3.0 0.00 0.00 0.00 57 1014.5
20260507192505 57 136 1.0 3.0 0.00 0.00 0.00 55 1014.6
20260507191004 57 114 2.0 5.0 0.00 0.00 0.00 54 1014.6
20260507190504 57 128 2.0 6.0 0.00 0.00 0.00 55 1014.6
20260507185504 58 173 3.0 7.0 0.00 0.00 0.00 58 1014.6
20260507184004 58 147 4.0 7.0 0.00 0.00 0.00 57 1014.6
20260507182504 58 158 3.0 8.0 0.00 0.00 0.00 58 1014.5
20260507181504 59 146 3.0 8.0 0.00 0.00 0.00 57 1014.5
20260507180005 59 147 3.0 8.0 0.00 0.00 0.00 55 1014.4
20260507175005 59 149 5.0 8.0 0.00 0.00 0.00 54 1014.3
20260507174504 59 156 5.0 8.0 0.00 0.00 0.00 55 1014.4
20260507174004 60 168 4.0 8.0 0.00 0.00 0.00 54 1014.4
20260507173505 60 171 4.0 9.0 0.00 0.00 0.00 53 1014.4
20260507172504 60 142 6.0 10.0 0.00 0.00 0.00 51 1014.4
20260507172005 61 135 6.0 10.0 0.00 0.00 0.00 51 1014.4
20260507170505 61 197 3.0 9.0 0.00 0.00 0.00 53 1014.3
20260507165504 61 165 3.0 12.0 0.00 0.00 0.00 53 1014.4
20260507165005 61 155 6.0 12.0 0.00 0.00 0.00 54 1014.4
20260507164504 61 153 5.0 9.0 0.00 0.00 0.00 53 1014.3
20260507164005 61 164 5.0 10.0 0.00 0.00 0.00 54 1014.4
20260507163504 61 149 5.0 12.0 0.00 0.00 0.00 54 1014.4
20260507155504 61 135 6.0 12.0 0.00 0.00 0.00 55 1014.5
20260507155005 61 115 6.0 12.0 0.00 0.00 0.00 55 1014.5
20260507154504 61 137 5.0 12.0 0.00 0.00 0.00 55 1014.4
20260507152504 63 159 7.0 14.0 0.00 0.00 0.00 53 1014.5
20260507152004 63 158 6.0 14.0 0.00 0.00 0.00 52 1014.6
20260507151005 63 165 7.0 14.0 0.00 0.00 0.00 54 1014.6
20260507150505 63 139 6.0 13.0 0.00 0.00 0.00 55 1014.6
20260507144504 61 155 6.0 12.0 0.00 0.00 0.00 57 1014.8
20260507143504 61 149 6.0 16.0 0.00 0.00 0.00 57 1014.8
20260507142505 60 145 6.0 12.0 0.00 0.00 0.00 58 1014.9
20260507142004 61 149 6.0 13.0 0.00 0.00 0.00 57 1015.0
20260507141004 62 153 7.0 14.0 0.00 0.00 0.00 55 1015.0
20260507135505 63 145 10.0 16.0 0.00 0.00 0.00 54 1015.0
20260507135004 64 157 7.0 12.0 0.00 0.00 0.00 54 1015.0
20260507134005 64 146 6.0 17.0 0.00 0.00 0.00 52 1014.9
20260507133504 64 142 7.0 17.0 0.00 0.00 0.00 54 1014.9
20260507132504 64 173 7.0 13.0 0.00 0.00 0.00 54 1015.0
20260507132004 64 154 7.0 14.0 0.00 0.00 0.00 56 1015.0
20260507130505 63 194 8.0 13.0 0.00 0.00 0.00 57 1015.1
20260507130005 62 182 6.0 12.0 0.00 0.00 0.00 59 1015.0
20260507125505 62 191 6.0 17.0 0.00 0.00 0.00 57 1015.1
20260507124504 62 166 6.0 15.0 0.00 0.00 0.00 58 1015.1
20260507123505 61 143 6.0 10.0 0.00 0.00 0.00 57 1015.1
20260507123005 62 167 5.0 10.0 0.00 0.00 0.00 56 1015.1
20260507122504 62 197 5.0 10.0 0.00 0.00 0.00 56 1015.1
20260507122005 62 144 6.0 10.0 0.00 0.00 0.00 55 1015.2
20260507121505 62 170 5.0 10.0 0.00 0.00 0.00 55 1015.2
20260507121005 63 176 6.0 14.0 0.00 0.00 0.00 54 1015.2
20260507120504 63 157 6.0 14.0 0.00 0.00 0.00 55 1015.3
20260507120006 63 152 5.0 13.0 0.00 0.00 0.00 57 1015.3
20260507115505 63 207 6.0 13.0 0.00 0.00 0.00 57 1015.3
20260507115005 63 143 9.0 13.0 0.00 0.00 0.00 54 1015.3
20260507114004 63 181 8.0 13.0 0.00 0.00 0.00 55 1015.3
20260507113505 62 168 7.0 13.0 0.00 0.00 0.00 56 1015.3
20260507112504 62 155 8.0 12.0 0.00 0.00 0.00 55 1015.3
20260507110504 62 159 6.0 12.0 0.00 0.00 0.00 60 1015.4
20260507110005 61 178 6.0 12.0 0.00 0.00 0.00 59 1015.5
20260507105005 61 205 5.0 12.0 0.00 0.00 0.00 59 1015.5
20260507104505 60 189 5.0 12.0 0.00 0.00 0.00 61 1015.5
20260507103504 59 186 6.0 12.0 0.00 0.00 0.00 60 1015.5
20260507103005 59 178 7.0 13.0 0.00 0.00 0.00 59 1015.4
20260507102505 59 165 7.0 13.0 0.00 0.00 0.00 60 1015.4
20260507101504 60 148 7.0 12.0 0.00 0.00 0.00 56 1015.4
20260507100005 62 158 7.0 15.0 0.00 0.00 0.00 58 1015.5
20260507095004 62 150 5.0 12.0 0.00 0.00 0.00 61 1015.4
20260507094505 61 173 6.0 12.0 0.00 0.00 0.00 63 1015.4
20260507092504 59 147 7.0 13.0 0.00 0.00 0.00 65 1015.5